Regional Weather Roundup
Issued by NWS Portland, ME

Home | Current Version | Previous Version | Text Only | Print | Product List | Glossary On
Versions: 1 2 3 4 5 6 7 8 9 10 11 12 13 14 15 16 17 18 19 20 21 22 23 24 25 26 27 28 29 30 31 32 33 34 35 36 37 38 39 40 41 42 43 44 45 46 47 48 49 50
000
ASUS41 KGYX 232010
RWRGYX
WEATHER ROUNDUP FOR MAINE AND NEW HAMPSHIRE
NATIONAL WEATHER SERVICE GRAY ME
400 PM EDT THU OCT 23 2014

MEZ002-005-006-010-012-015-018-020-021-024-026-027-029-232100-
MAINE

CITY           SKY/WX    TMP DP  RH WIND       PRES   REMARKS
PORTLAND       LGT RAIN  53  49  86 N16G24    29.72S
SANFORD        CLOUDY    50  45  81 N20       29.72R
BAR HARBOR     CLOUDY    52  52 100 NE14G28   29.79S
WISCASSET      CLOUDY    52  49  89 NE8       29.75F
ROCKLAND       CLOUDY    52  50  93 NE21G30   29.73F
FRYEBURG       HVY RAIN  48  46  93 N13G20    29.76F FOG
LEWISTONAUBURN CLOUDY    48  45  87 NE18G32   29.76F
AUGUSTA        LGT RAIN  48  46  93 N23G30    29.77F FOG
WATERVILLE     CLOUDY    48  45  87 N14       29.81S
BANGOR         DRIZZLE   51  48  89 NE17G25   29.84F
GREENVILLE       N/A     45  41  86 NE16G24   29.88F
MILLINOCKET    LGT RAIN  47  45  93 NE12      29.95F FOG
HOULTON        LGT RAIN  48  43  82 NE13G23   29.96F
PRESQUE ISLE   CLOUDY    48  39  71 N12       30.02F
FRENCHVILLE    CLOUDY    43  35  73 NE13      30.07F
CARIBOU        CLOUDY    47  39  74 N13G20    30.04F
$$

NHZ002-005-008-009-011-012-014-232100-
NEW HAMPSHIRE

CITY           SKY/WX    TMP DP  RH WIND       PRES   REMARKS
PORTSMOUTH     CLOUDY    52  49  89 N17G28    29.66S
ROCHESTER      LGT RAIN  51  48  89 N14G24    29.70S FOG
NASHUA         CLOUDY    53  49  86 N10G23    29.68R
MANCHESTER     CLOUDY    53  46  77 N21G32    29.67S
CONCORD        CLOUDY    51  47  86 NE10G22   29.72R
LACONIA        CLOUDY    50  45  81 NE15G21   29.73F
PLYMOUTH       RAIN      51  51 100 NW5       29.76F
BERLIN         LGT RAIN  47  45  93 N10       29.86R FOG
WHITEFIELD     LGT RAIN  48  45  89 NE8       29.84R
JAFFREY        LGT RAIN  48  47  96 VRB7      29.70S FOG
LEBANON        CLOUDY    50  46  86 N9        29.79R
MT WASHINGTON  FRZ RAIN  32  32 100 E54G62      N/A  VSB 0   WCI  14
$$

VTZ005-007-008-232100-
VERMONT

CITY           SKY/WX    TMP DP  RH WIND       PRES   REMARKS
ST JOHNSBURY     N/A     47  46  97 MISG      29.83S
MONTPELIER     CLOUDY    44  42  93 N8        29.89S
BURLINGTON     LGT RAIN  45  42  89 N16       29.92R FOG
$$

MAZ007-012-024-CTZ003-RIZ002-NYZ038-NYZ072-232100-
SOUTHERN NEW ENGLAND AND NY

CITY           SKY/WX    TMP DP  RH WIND       PRES   REMARKS
BOSTON         DRIZZLE   52  52 100 N26G41    29.58F FOG
WORCESTER      LGT RAIN  49  48  97 N16G26    29.64R VSB 1
NANTUCKET      PTSUNNY   63  58  83 NE12      29.45S
PROVIDENCE     CLOUDY    57  51  80 N22G29    29.56F
HARTFORD       CLOUDY    54  47  77 N20G29    29.65S
ALBANY         LGT RAIN  49  43  80 N14G25    29.82S
NEW YORK CITY  PTSUNNY   52  46  80 N21G29    29.68F
$$

ANZ081-ANZ082-ANZ150-NHZ014-MEZ023>029-232100-
COASTAL MARINE OBSERVATIONS

STATION/POSITION TIME  TEMP    WIND        PRES    WAVE
                       AIR SEA DIR/SP/G            HT/PER
                 (UTC) (F)     (DEG/KT/KT) (MB)    (FT/S)
MOUNT DESERT ROC 2000   54                 1003.9F
MATINICUS ROCK   2000           50/ 44/ 50 1003.8F
PORTLAND WX BUOY 1950   53 54   20/ 25/ 29 1004.8R   9/10
WELLS            1900   52 50   10/ 16/ 20 1004.6F
ISLE OF SHOALS   2000   53      20/ 34/ 38 1002.7S
JEFFREYS LEDGE   1921      56                N/A    15/11
CASHES LEDGE BUO 1950   55 55   50/ 29/ 37 1001.2F  16/ 9
$$

.............KEY..............
   WCI - WIND CHILL
   TC  - TEMPERATURE IN CELSIUS
   VSB - VISIBILITY IN MILES
   HX  - HEAT INDEX
   FAIR- INDICATES FEW OR NO CLOUDS BELOW 12,000 FT, WITH NO
         SIGNIFICANT WEATHER AND/OR OBSTRUCTIONS TO VISIBILITY.





USA.gov is the U.S. government's official web portal to all federal, state and local government web resources and services.